Flag for Israel Weather past 2 weeks in Kfar Saba, Israel

Now
86 °F

Passing clouds.


Feels Like: 92 °F
Forecast: 72 / 89 °F
Wind: 12 mph from Southwest

Location: Dov Airport

Current Time: Jul 22, 2014 at 11:31:15 AM

Latest Report: Jul 22, 2014 at 10:50 AM


Visibility: N/A

Pressure: 29.77 "Hg

Humidity: 62%

Dew point: 72 °F

Location of Kfar SabaLocation

Historic Weather in Kfar Saba — Graph

°F

Kfar Saba temperature yesterday

Maximum temperature yesterday: 86 °F (at 10:50 AM)
Minimum temperature yesterday: 79 °F (at 5:50 AM)
Average temperature yesterday: 83 °F

Past Weeks' High & Low Weather Summary

 TemperatureHumidityPressure
High88 °F (Jul 10, 11:50 AM)84% (Jul 8, 6:50 AM)29.89 "Hg (Jul 8, 6:50 AM)
Low75 °F (Jul 9, 5:50 AM)55% (Jul 14, 1:50 PM)29.71 "Hg (Jul 9, 5:50 AM)
Average83 °F68%29.78 "Hg
* Reported Jul 7 9:50 AM — Jul 22 9:50 AM, Kfar Saba, Weather by CustomWeather, © 2014

Note: Actual official high and low records may vary slightly from our data, if they occured in-between our weather recording intervals... More about our weather records

Advertising

Kfar Saba weather history for previous 24 hours

 ConditionsComfort  
Time TempWeatherWind HumidityBarometerVisibility
9:50 AM
Jul 22
84 °FPassing clouds.9 mph66%29.77 "HgN/A
8:50 AM82 °FPassing clouds.8 mph70%29.77 "HgN/A
7:50 AM81 °FPassing clouds.7 mph74%29.74 "HgN/A
6:50 AM77 °FPassing clouds.5 mph79%29.74 "HgN/A
5:50 AM77 °FPassing clouds.3 mph74%29.74 "HgN/A
10:50 PM
Jul 21
81 °FPassing clouds.3 mph70%29.74 "HgN/A
9:50 PM81 °FPassing clouds.3 mph70%29.74 "HgN/A
8:50 PM81 °FPassing clouds.5 mph74%29.74 "HgN/A
7:50 PM82 °FScattered clouds.6 mph70%29.74 "HgN/A
6:50 PM84 °FScattered clouds.9 mph66%29.74 "HgN/A
5:50 PM84 °FScattered clouds.12 mph66%29.74 "HgN/A
4:50 PM86 °FPartly sunny.13 mph62%29.74 "HgN/A
3:50 PM86 °FScattered clouds.13 mph62%29.74 "HgN/A
2:50 PM86 °FScattered clouds.13 mph62%29.74 "HgN/A
1:50 PM86 °FScattered clouds.14 mph66%29.74 "HgN/A
12:50 PM86 °FPartly sunny.14 mph62%29.74 "HgN/A
11:50 AM84 °FPartly sunny.13 mph66%29.74 "HgN/A
Weather by CustomWeather, © 2014

See weather overviewHow to use our weather pages